Flag for Germany Weather past 2 weeks in Plauen, Saxony, Germany

Now
30 °F

Light snow. Low clouds.


Feels Like: 23 °F
Forecast: 35 / 37 °F
Wind: 7 mph from Southwest

Location: Hof

Current Time: Jan 26, 2015 at 10:31:52 PM

Latest Report: Jan 26, 2015 at 9:00 PM


Visibility: 1 mi

Pressure: 30.03 "Hg

Humidity: 97%

Dew point: 29 °F

Location of PlauenLocation

Historic Weather in Plauen — Graph

°F

Plauen temperature yesterday

Maximum temperature yesterday: 33 °F (at 1:00 PM)
Minimum temperature yesterday: 27 °F (at 12:00 AM)
Average temperature yesterday: 30 °F

Past Weeks' High & Low Weather Summary

 TemperatureHumidityPressure
High49 °F (Jan 13, 7:00 PM)100% (Jan 17, 2:00 PM)30.37 "Hg (Jan 17, 2:00 PM)
Low26 °F (Jan 23, 11:00 AM)44% (Jan 13, 6:00 PM)29.74 "Hg (Jan 16, 6:00 PM)
Average33 °F89%30.02 "Hg
* Reported Jan 11 9:00 PM — Jan 26 9:00 PM, Plauen, Weather by CustomWeather, © 2014

Note: Actual official high and low records may vary slightly from our data, if they occured in-between our weather recording intervals... More about our weather records

Advertising

Plauen weather history for previous 24 hours

 ConditionsComfort  
Time TempWeatherWind HumidityBarometerVisibility
9:00 PM
Jan 26
30 °FLight snow. Low clouds.7 mph97%30.03 "Hg1 mi
8:00 PM30 °FLight snow. Low clouds.6 mph97%30.04 "Hg1 mi
7:00 PM30 °FSnow. Low clouds.6 mph98%30.07 "Hg1 mi
6:00 PM31 °FLight snow. Low clouds.6 mph96%30.09 "Hg3 mi
5:00 PM31 °FLight snow. Low clouds.5 mph96%30.11 "Hg2 mi
3:00 PM31 °FLight snow. Low clouds.6 mph95%30.16 "Hg3 mi
2:00 PM31 °FSnow flurries. Low clouds.5 mph96%30.18 "Hg3 mi
1:00 PM30 °FSnow flurries. Low clouds.6 mph99%30.21 "Hg2 mi
12:00 PM31 °FLight snow. Low clouds.5 mph96%30.24 "Hg6 mi
11:00 AM31 °FLight snow. Low clouds.5 mph96%30.27 "Hg4 mi
10:00 AM31 °FLow clouds.3 mph95%30.28 "Hg6 mi
9:00 AM30 °FLight snow. Low clouds.5 mph97%30.30 "Hg5 mi
8:00 AM30 °FFog.3 mph100%30.30 "Hg4 mi
7:00 AM30 °FLow clouds.3 mph98%30.31 "Hg4 mi
6:00 AM30 °FLow clouds.3 mph98%30.31 "Hg2 mi
5:00 AM30 °FSnow flurries. Overcast.2 mph98%30.32 "Hg4 mi
3:00 AM30 °FLight snow. Low clouds.2 mph99%30.33 "Hg1 mi
2:00 AM30 °FLight snow. Low clouds.2 mph99%30.33 "Hg1 mi
1:00 AM31 °FSnow flurries. Low clouds.2 mph98%30.34 "Hg4 mi
12:00 AM31 °FLight snow. Low clouds.2 mph100%30.35 "Hg1 mi
11:00 PM
Jan 25
31 °FSnow. Low clouds.2 mph98%30.35 "Hg1 mi
Weather by CustomWeather, © 2014

See weather overviewHow to use our weather pages